Sunday, May 27, 2018, 5:45 PM GMT
Back to Local

CYHZ, Halifax International Airport

Location: , , Canada Lat: 44.883
Local Time: 5:45 PM GMT (17:45 GMT) Lon: -63.5
Time Zone: GMT Elev: 475 ft

Show me the last for .
Show Coded

Time T Td Feel RH Dir Speed Gust Alt SLP Vis Weather Sky Remarks
2018-05-27 17:00 59 36 - 41 Variable 9 - 30.29 30.30 15 FEW050 FEW260 None
2018-05-27 16:00 55 34 - 43 60° 9 - 30.30 30.31 15 FEW030 None
2018-05-27 15:00 54 34 - 46 80° 6 17 30.30 30.31 15 FEW048 None
2018-05-27 14:00 50 39 46 66 10° 9 - 30.30 30.31 15 FEW030 None
2018-05-27 13:00 46 37 40 70 20° 14 - 30.30 30.31 15 FEW015 None
2018-05-27 12:00 43 37 34 81 20° 10 21 30.28 30.30 15 SCT020 None
2018-05-27 11:00 41 39 36 93 20° 8 - 30.29 30.30 15 SCT020 None
2018-05-27 10:00 37 37 33 100 40° 6 - 30.27 30.29 15 SCT020 None
2018-05-27 09:00 36 36 31 100 30° 6 - 30.24 30.26 15 FEW100 None
2018-05-27 08:00 36 36 31 100 10° 6 - 30.21 30.22 15 FEW260 None
2018-05-27 07:00 36 36 31 100 360° 6 - 30.18 30.19 15 FEW260 None
2018-05-27 06:00 37 37 33 100 360° 6 - 30.15 30.16 15 CLR None
2018-05-27 05:00 37 37 34 100 350° 5 - 30.14 30.15 15 CLR None
2018-05-27 04:00 39 37 34 93 350° 7 - 30.11 30.12 15 FEW260 None
2018-05-27 03:05 39 37 34 93 340° 7 - 30.08 30.09 15 FEW260 None
2018-05-27 02:00 41 37 37 86 350° 6 - 30.05 30.06 15 FEW260 None
2018-05-27 01:00 45 37 37 75 360° 12 18 30.02 30.03 15 BKN250 None
2018-05-27 00:00 46 39 39 75 360° 12 18 29.98 29.99 15 FEW020 FEW070 OVC250 Pressure rising rapidly
2018-05-26 23:00 50 41 42 71 360° 17 29 29.91 29.92 15 FEW020 FEW070 BKN250 None
2018-05-26 22:00 52 45 - 76 360° 20 - 29.86 29.87 15 FEW020 BKN250 None
2018-05-26 21:50 54 45 - 71 360° 20 25 29.85 29.86 15 FEW020 BKN250 Pressure rising rapidly
2018-05-26 21:00 54 48 - 81 360° 15 22 29.81 29.82 15 FEW008 BKN015 OVC250 None
2018-05-26 20:50 54 48 - 81 360° 18 25 29.80 29.81 15 FEW008 BKN015 BKN250 None
2018-05-26 20:00 52 50 - 93 10° 15 22 29.77 29.78 15 OVC007 Pressure rising rapidly
2018-05-26 19:49 52 50 - 93 360° 18 - 29.76 29.77 12 BKN006 OVC011 None
2018-05-26 19:42 52 52 - 100 360° 14 23 29.75 29.76 3 -DZ BR OVC006 None
2018-05-26 19:34 52 52 - 100 360° 17 23 29.75 29.76 2 -DZ BR OVC004 None
2018-05-26 19:22 52 52 - 100 10° 15 - 29.74 29.75 10 OVC004 Pressure rising rapidly
2018-05-26 19:11 54 54 - 100 10° 17 23 29.73 29.74 2 -DZ BR OVC004 None
2018-05-26 19:00 55 54 - 93 360° 17 - 29.72 29.73 1 -DZ BR VV002 None
2018-05-26 18:44 55 55 - 100 340° 15 - 29.71 29.72 1 BR OVC002 None
2018-05-26 18:31 57 55 - 93 340° 12 20 29.71 29.72 2 BR OVC002 None
2018-05-26 18:00 59 57 - 93 340° 10 - 29.69 29.70 15 OVC007 None

Support USWX by starting your Amazon purchase here.